Regional Weather Roundup
Issued by NWS Cleveland, OH

Home | Current Version | Previous Version | Text Only | Print | Product List | Glossary Off
Versions: 1 2 3 4 5 6 7 8 9 10 11 12 13 14 15 16 17 18 19 20 21 22 23 24 25 26 27 28 29 30 31 32 33 34 35 36 37 38 39 40 41 42 43 44 45 46 47 48 49 50

000
ASUS41 KCLE 271612
RWRCLE
OHIO REGIONAL WEATHER ROUNDUP
NATIONAL WEATHER SERVICE WILMINGTON, OH
1200 PM EDT SAT AUG 27 2016

NOTE: "FAIR" INDICATES FEW OR NO CLOUDS BELOW 12,000 FEET WITH NO
SIGNIFICANT WEATHER AND/OR OBSTRUCTIONS TO VISIBILITY.

OHZ001>008-015>018-024>027-034-035-043-044-271700-
   NORTHWEST OHIO

CITY           SKY/WX    TMP DP  RH WIND       PRES   REMARKS
DEFIANCE       FAIR      84  71  65 VRB7      30.10F
FINDLAY        FAIR      87  70  56 S15       30.12F HX  92
TOLEDO EXPRESS PTSUNNY   82  69  64 VRB6      30.11F
TOLEDO EXEC    FAIR      83  70  64 SE8       30.13F
LIMA           PTSUNNY   84  75  74 S7        30.14S HX  92
$$

OHZ009>014-019>023-028>033-038-089-271700-
   NORTHEAST OHIO

CITY           SKY/WX    TMP DP  RH WIND       PRES   REMARKS
CLE-HOPKINS    FAIR      86  64  47 S13       30.17F
CLE-LAKEFRONT  FAIR      86  62  44 SE13      30.14F
CUY CO. ARPT   MOSUNNY   86  66  51 SE12      30.17F
LORAIN-ELYRIA  FAIR      84  66  54 S9        30.15F
ASHTABULA      FAIR      79  66  64 VRB6      30.19F
AKRON-CANTON   FAIR      80  63  55 S9        30.19S
WOOSTER        FAIR      80  68  66 S7        30.19S
MANSFIELD      FAIR      84  69  60 S10       30.18S
YOUNGSTOWN     PTSUNNY   80  64  58 SE9       30.20S
$$

OHZ042-051>053-060>062-070>072-077>081-271700-
  SOUTHWEST OHIO

CITY           SKY/WX    TMP DP  RH WIND       PRES   REMARKS
CINC-COVINGTON FAIR      87  74  64 S7        30.13S HX  95
CINC-LUNKEN    NOT AVBL
HAMILTON       FAIR      89  75  63 CALM      30.13F HX  99
DAYTON         FAIR      85  74  69 SW7       30.15F HX  92
WRIGHT-PAT AFB MOSUNNY   86  75  69 S5        30.13F HX  95
DAYTON GENERAL FAIR      86  73  65 SE7       30.13F HX  93
WILMINGTON     FAIR      86  75  69 S10       30.14S HX  95
$$

OHZ036-037-039>041-045>050-054>059-063>069-073>076-082>088-271700-
  CENTRAL AND SOUTHEAST OHIO

CITY           SKY/WX    TMP DP  RH WIND       PRES   REMARKS
COLUMBUS       PTSUNNY   85  71  63 SE9       30.14F HX  90
OSU AIRPORT    FAIR      86  73  65 SE10      30.15S HX  93
BOLTON FIELD   SUNNY     84  75  74 MISG      30.15F HX  92
RICKENBACK AFB FAIR      85  74  69 SE5       30.14S HX  93
NEWARK         FAIR      86  71  60 SE7       30.15F HX  91
MARION         FAIR      84  70  62 S12       30.16F
LANCASTER      FAIR      87  74  64 S8        30.15F HX  95
ZANESVILLE     FAIR      85  72  65 S6        30.16F HX  91
NEW PHILLY     FAIR      86  66  51 SE6       30.18S
$$



USA.gov is the U.S. government's official web portal to all federal, state and local government web resources and services.